�������l�o���
Date,Time,MP-1(��Sv/h),MP-2(��Sv/h),MP-3(��Sv/h),MP-4(��Sv/h),MP-5(��Sv/h),MP-6(��Sv/h),MP-7(��Sv/h),MP-8(��Sv/h),����,����(m/s),���J
2017/09/21,00:00,0.949,1.496,0.973,1.787,1.217,0.517,0.942,0.865,��,5.9,��
2017/09/21,00:10,0.949,1.496,0.972,1.789,1.219,0.516,0.942,0.867,���쐼,8.2,��
2017/09/21,00:20,0.947,1.496,0.973,1.791,1.222,0.517,0.944,0.867,���쐼,7.0,��
2017/09/21,00:30,0.945,1.496,0.972,1.787,1.221,0.515,0.942,0.867,���쐼,5.8,��
2017/09/21,00:40,0.946,1.496,0.972,1.786,1.216,0.518,0.943,0.868,���쐼,5.0,��
2017/09/21,00:50,0.945,1.494,0.971,1.790,1.218,0.516,0.941,0.864,���쐼,5.1,��
2017/09/21,01:00,0.947,1.496,0.972,1.786,1.218,0.517,0.943,0.867,���쐼,5.3,��
2017/09/21,01:10,0.945,1.497,0.974,1.789,1.218,0.518,0.941,0.870,��,9.0,��
2017/09/21,01:20,0.949,1.495,0.974,1.788,1.219,0.518,0.943,0.869,��,9.5,��
2017/09/21,01:30,0.944,1.498,0.974,1.788,1.219,0.516,0.941,0.869,���k��,7.1,��
2017/09/21,01:40,0.945,1.495,0.974,1.789,1.219,0.516,0.941,0.869,���k��,6.1,��
2017/09/21,01:50,0.947,1.496,0.974,1.791,1.219,0.518,0.943,0.867,��,9.2,��
2017/09/21,02:00,0.945,1.497,0.973,1.789,1.220,0.518,0.942,0.869,��,10.2,��
2017/09/21,02:10,0.947,1.494,0.973,1.789,1.220,0.517,0.941,0.869,��,8.5,��
2017/09/21,02:20,0.947,1.496,0.973,1.790,1.219,0.518,0.940,0.870,��,8.7,��
2017/09/21,02:30,0.947,1.497,0.973,1.791,1.221,0.517,0.943,0.867,��,9.3,��
2017/09/21,02:40,0.947,1.496,0.974,1.788,1.218,0.518,0.942,0.866,��,11.0,��
2017/09/21,02:50,0.948,1.497,0.974,1.794,1.219,0.515,0.942,0.869,��,11.9,��
2017/09/21,03:00,0.947,1.495,0.974,1.792,1.222,0.518,0.944,0.868,��,12.7,��
2017/09/21,03:10,0.945,1.495,0.973,1.792,1.221,0.517,0.943,0.870,��,12.0,��
2017/09/21,03:20,0.947,1.497,0.975,1.791,1.220,0.517,0.942,0.870,��,10.8,��
2017/09/21,03:30,0.947,1.497,0.973,1.790,1.219,0.517,0.942,0.868,��,8.8,��
2017/09/21,03:40,0.947,1.497,0.974,1.793,1.219,0.515,0.943,0.867,���k��,8.3,��
2017/09/21,03:50,0.947,1.497,0.974,1.796,1.219,0.516,0.942,0.867,��,7.8,��
2017/09/21,04:00,0.946,1.495,0.974,1.792,1.217,0.517,0.940,0.869,��,9.0,��
2017/09/21,04:10,0.948,1.495,0.973,1.796,1.219,0.516,0.942,0.868,���k��,5.7,��
2017/09/21,04:20,0.945,1.497,0.975,1.791,1.219,0.518,0.942,0.868,���k��,5.6,��
2017/09/21,04:30,0.946,1.496,0.973,1.793,1.221,0.518,0.941,0.867,���k��,3.4,��
2017/09/21,04:40,0.946,1.496,0.973,1.791,1.220,0.517,0.939,0.869,���k��,2.6,��
2017/09/21,04:50,0.945,1.495,0.971,1.791,1.221,0.517,0.940,0.867,���k��,2.3,��
2017/09/21,05:00,0.944,1.494,0.970,1.789,1.219,0.517,0.941,0.867,���k��,2.5,��
2017/09/21,05:10,0.945,1.496,0.972,1.789,1.218,0.518,0.942,0.866,��,2.3,��
2017/09/21,05:20,0.946,1.497,0.971,1.791,1.218,0.517,0.942,0.867,���k��,1.7,��
2017/09/21,05:30,0.945,1.497,0.972,1.790,1.221,0.516,0.943,0.868,�k��,1.1,��
2017/09/21,05:40,0.945,1.492,0.971,1.787,1.220,0.517,0.941,0.865,��,1.1,��
2017/09/21,05:50,0.945,1.497,0.971,1.792,1.221,0.515,0.940,0.864,���쓌,1.5,��
2017/09/21,06:00,0.947,1.498,0.973,1.790,1.219,0.514,0.940,0.866,�쓌,0.8,��
2017/09/21,06:10,0.945,1.496,0.971,1.788,1.219,0.516,0.941,0.866,��쐼,1.1,��
2017/09/21,06:20,0.945,1.495,0.972,1.791,1.219,0.516,0.941,0.866,��쐼,2.0,��
2017/09/21,06:30,0.945,1.497,0.972,1.790,1.221,0.517,0.941,0.867,��쐼,2.3,��
2017/09/21,06:40,0.945,1.496,0.971,1.792,1.219,0.516,0.942,0.867,��,1.9,��
2017/09/21,06:50,0.947,1.499,0.972,1.790,1.220,0.516,0.940,0.865,��,3.1,��
2017/09/21,07:00,0.947,1.497,0.973,1.791,1.221,0.516,0.942,0.867,�쐼,1.7,��
2017/09/21,07:10,0.945,1.497,0.971,1.790,1.220,0.514,0.943,0.866,���쐼,2.0,��
2017/09/21,07:20,0.946,1.497,0.975,1.790,1.219,0.514,0.941,0.866,���쐼,2.5,��
2017/09/21,07:30,0.946,1.496,0.972,1.791,1.221,0.515,0.941,0.865,���쐼,3.0,��
2017/09/21,07:40,0.949,1.496,0.973,1.791,1.222,0.514,0.941,0.868,���쐼,2.6,��
2017/09/21,07:50,0.945,1.495,0.977,1.793,1.218,0.515,0.943,0.865,��,1.9,��
2017/09/21,08:00,0.944,1.495,0.973,1.793,1.222,0.513,0.943,0.867,�쐼,2.3,��
2017/09/21,08:10,0.944,1.494,0.974,1.794,1.221,0.515,0.943,0.870,�쐼,2.3,��
2017/09/21,08:20,0.945,1.494,0.975,1.793,1.221,0.515,0.942,0.868,��,2.6,��
2017/09/21,08:30,0.946,1.496,0.972,1.793,1.223,0.515,0.939,0.868,���쐼,2.2,��
2017/09/21,08:40,0.947,1.496,0.973,1.795,1.219,0.517,0.941,0.868,��,4.0,��
2017/09/21,08:50,0.945,1.496,0.973,1.794,1.224,0.514,0.941,0.865,���k��,2.0,��
2017/09/21,09:00,0.946,1.494,0.973,1.796,1.222,0.514,0.942,0.864,�k�k��,1.9,��
2017/09/21,09:10,0.947,1.496,0.974,1.798,1.221,0.515,0.941,0.866,��,1.7,��
2017/09/21,09:20,0.947,1.494,0.973,1.796,1.222,0.516,0.942,0.865,�k�k��,1.1,��
2017/09/21,09:30,0.948,1.499,0.972,1.799,1.222,0.516,0.942,0.865,���k��,1.5,��
2017/09/21,09:40,0.949,1.499,0.974,1.796,1.222,0.515,0.944,0.866,���k��,3.9,��
2017/09/21,09:50,0.950,1.499,0.972,1.795,1.223,0.514,0.940,0.866,���쐼,3.0,��
2017/09/21,10:00,0.950,1.501,0.973,1.796,1.223,0.517,0.943,0.865,�k�k��,4.2,��
2017/09/21,10:10,0.949,1.502,0.974,1.797,1.223,0.516,0.943,0.865,��,1.5,��
2017/09/21,10:20,0.952,1.502,0.974,1.797,1.225,0.515,0.942,0.866,�k��,8.3,��
2017/09/21,10:30,0.951,1.500,0.976,1.799,1.222,0.515,0.943,0.865,�k��,11.0,��
2017/09/21,10:40,0.952,1.501,0.976,1.799,1.228,0.516,0.943,0.865,�k��,12.1,��
2017/09/21,10:50,0.951,1.503,0.978,1.799,1.227,0.516,0.941,0.866,�k��,11.1,��
2017/09/21,11:00,0.951,1.505,0.975,1.799,1.225,0.517,0.944,0.866,�k��,9.2,��
2017/09/21,11:10,0.954,1.505,0.977,1.796,1.226,0.518,0.943,0.867,�k��,9.7,��
2017/09/21,11:20,0.952,1.504,0.978,1.801,1.227,0.517,0.944,0.867,�k��,11.3,��
2017/09/21,11:30,0.955,1.505,0.981,1.801,1.226,0.518,0.944,0.866,�k��,9.6,��
2017/09/21,11:40,0.954,1.507,0.976,1.801,1.227,0.517,0.944,0.868,���k��,8.8,��
2017/09/21,11:50,0.953,1.508,0.978,1.800,1.230,0.518,0.944,0.868,�k��,7.6,��
2017/09/21,12:00,0.957,1.506,0.980,1.802,1.231,0.518,0.944,0.867,�k��,9.5,��
2017/09/21,12:10,0.955,1.508,0.979,1.802,1.232,0.516,0.944,0.867,�k��,9.5,��
2017/09/21,12:20,0.956,1.509,0.980,1.801,1.230,0.517,0.944,0.867,�k��,11.6,��
2017/09/21,12:30,0.955,1.509,0.982,1.806,1.231,0.517,0.945,0.868,�k��,7.3,��
2017/09/21,12:40,0.955,1.511,0.981,1.804,1.230,0.517,0.943,0.866,�k��,8.6,��
2017/09/21,12:50,0.956,1.509,0.980,1.803,1.234,0.518,0.946,0.867,�k��,7.8,��
2017/09/21,13:00,0.956,1.514,0.981,1.806,1.232,0.517,0.945,0.867,�k�k��,6.6,��
2017/09/21,13:10,0.958,1.512,0.981,1.806,1.234,0.518,0.944,0.868,�k�k��,9.5,��
2017/09/21,13:20,0.957,1.512,0.982,1.808,1.234,0.519,0.946,0.868,�k�k��,9.2,��
2017/09/21,13:30,0.959,1.510,0.981,1.807,1.235,0.518,0.944,0.870,�k�k��,8.5,��
2017/09/21,13:40,0.957,1.512,0.983,1.808,1.233,0.518,0.945,0.868,�k��,7.4,��
2017/09/21,13:50,0.958,1.512,0.982,1.810,1.234,0.517,0.944,0.869,�k��,9.3,��
2017/09/21,14:00,0.959,1.512,0.983,1.807,1.237,0.518,0.946,0.867,�k��,7.2,��
2017/09/21,14:10,0.958,1.512,0.983,1.809,1.237,0.517,0.946,0.869,�k��,8.6,��
2017/09/21,14:20,0.957,1.516,0.987,1.809,1.239,0.518,0.946,0.868,�k��,6.9,��
2017/09/21,14:30,0.956,1.514,0.987,1.811,1.235,0.519,0.947,0.868,�k��,6.4,��
2017/09/21,14:40,0.958,1.513,0.985,1.809,1.236,0.519,0.947,0.867,�k��,6.0,��
2017/09/21,14:50,0.958,1.514,0.983,1.807,1.235,0.515,0.946,0.869,�k��,7.3,��
2017/09/21,15:00,0.957,1.513,0.984,1.809,1.239,0.518,0.946,0.867,�k��,6.9,��
2017/09/21,15:10,0.958,1.515,0.982,1.810,1.235,0.516,0.947,0.868,�k��,6.2,��
2017/09/21,15:20,0.958,1.510,0.982,1.808,1.235,0.517,0.944,0.867,�k��,5.1,��
2017/09/21,15:30,0.958,1.511,0.983,1.810,1.236,0.519,0.945,0.868,���k��,6.4,��
2017/09/21,15:40,0.958,1.513,0.984,1.810,1.239,0.519,0.946,0.869,�k��,4.0,��
2017/09/21,15:50,0.957,1.514,0.984,1.811,1.238,0.516,0.945,0.869,�k�k��,1.7,��
2017/09/21,16:00,0.957,1.513,0.980,1.810,1.239,0.518,0.945,0.867,���k��,2.3,��
2017/09/21,16:10,0.958,1.511,0.982,1.808,1.238,0.517,0.943,0.867,�k��,4.7,��
2017/09/21,16:20,0.958,1.512,0.982,1.811,1.238,0.516,0.945,0.867,���k��,5.1,��
2017/09/21,16:30,0.959,1.511,0.982,1.810,1.237,0.516,0.945,0.867,�k��,4.4,��
2017/09/21,16:40,0.958,1.515,0.984,1.809,1.237,0.516,0.945,0.867,���k��,3.9,��
2017/09/21,16:50,0.962,1.511,0.985,1.810,1.235,0.517,0.945,0.870,���k��,4.6,��
2017/09/21,17:00,0.960,1.513,0.984,1.809,1.235,0.516,0.946,0.868,���k��,5.7,��
2017/09/21,17:10,0.955,1.514,0.984,1.809,1.235,0.518,0.947,0.869,���k��,6.4,��
2017/09/21,17:20,0.956,1.513,0.987,1.813,1.237,0.517,0.946,0.867,���k��,5.6,��
2017/09/21,17:30,0.955,1.515,0.985,1.809,1.237,0.518,0.944,0.869,���k��,5.6,��
2017/09/21,17:40,0.955,1.515,0.983,1.811,1.236,0.518,0.945,0.870,��,4.6,��
2017/09/21,17:50,0.956,1.514,0.984,1.812,1.239,0.518,0.944,0.869,��,6.3,��
2017/09/21,18:00,0.955,1.518,0.987,1.810,1.238,0.518,0.946,0.870,��,6.9,��
2017/09/21,18:10,0.955,1.514,0.986,1.809,1.239,0.517,0.947,0.870,��,6.0,��
2017/09/21,18:20,0.955,1.517,0.985,1.812,1.239,0.517,0.945,0.870,���k��,5.5,��
2017/09/21,18:30,0.956,1.514,0.984,1.812,1.237,0.517,0.945,0.870,���k��,5.0,��
2017/09/21,18:40,0.957,1.515,0.984,1.809,1.239,0.516,0.946,0.870,���k��,3.5,��
2017/09/21,18:50,0.953,1.515,0.984,1.811,1.236,0.517,0.946,0.871,���k��,5.7,��
2017/09/21,19:00,0.954,1.516,0.984,1.811,1.236,0.518,0.946,0.869,��,5.9,��
2017/09/21,19:10,0.954,1.515,0.985,1.810,1.235,0.518,0.946,0.870,��,8.3,��
2017/09/21,19:20,0.953,1.516,0.985,1.810,1.237,0.519,0.944,0.870,��,7.4,��
2017/09/21,19:30,0.955,1.514,0.984,1.812,1.237,0.519,0.947,0.869,��,5.5,��
2017/09/21,19:40,0.954,1.513,0.984,1.808,1.235,0.517,0.946,0.869,���k��,5.8,��
2017/09/21,19:50,0.953,1.516,0.984,1.810,1.238,0.519,0.944,0.870,���k��,6.2,��
2017/09/21,20:00,0.953,1.517,0.986,1.808,1.237,0.518,0.946,0.871,���k��,7.1,��
2017/09/21,20:10,0.958,1.513,0.982,1.811,1.234,0.519,0.945,0.869,�k��,7.3,��
2017/09/21,20:20,0.954,1.516,0.984,1.812,1.236,0.518,0.944,0.869,���k��,6.6,��
2017/09/21,20:30,0.954,1.515,0.984,1.810,1.237,0.517,0.946,0.870,���k��,6.4,��
2017/09/21,20:40,0.954,1.513,0.985,1.806,1.235,0.517,0.945,0.870,���k��,5.3,��
2017/09/21,20:50,0.953,1.514,0.982,1.806,1.236,0.515,0.945,0.869,��,5.3,��
2017/09/21,21:00,0.952,1.514,0.984,1.807,1.236,0.516,0.944,0.868,���k��,3.9,��
2017/09/21,21:10,0.953,1.516,0.981,1.809,1.235,0.517,0.945,0.869,�k�k��,3.8,��
2017/09/21,21:20,0.955,1.515,0.984,1.808,1.235,0.517,0.945,0.869,�k�k��,5.4,��
2017/09/21,21:30,0.954,1.515,0.983,1.808,1.234,0.518,0.945,0.870,�k��,5.3,��
2017/09/21,21:40,0.953,1.515,0.984,1.807,1.238,0.517,0.947,0.869,�k��,5.2,��
2017/09/21,21:50,0.952,1.511,0.982,1.811,1.237,0.518,0.945,0.869,�k��,4.5,��
2017/09/21,22:00,0.954,1.513,0.984,1.808,1.235,0.517,0.945,0.870,�k��,4.7,��
2017/09/21,22:10,0.954,1.511,0.982,1.809,1.237,0.517,0.946,0.869,�k�k��,5.0,��
2017/09/21,22:20,0.954,1.514,0.982,1.809,1.238,0.515,0.944,0.869,�k��,4.6,��
2017/09/21,22:30,0.952,1.512,0.984,1.811,1.234,0.516,0.945,0.870,�k��,4.4,��
2017/09/21,22:40,0.954,1.512,0.981,1.810,1.236,0.517,0.945,0.869,�k��,4.0,��
2017/09/21,22:50,0.954,1.513,0.981,1.809,1.237,0.517,0.945,0.871,���k��,4.2,��
2017/09/21,23:00,0.953,1.513,0.980,1.808,1.235,0.516,0.946,0.869,���k��,3.8,��
2017/09/21,23:10,0.952,1.511,0.983,1.809,1.235,0.516,0.945,0.868,���k��,4.1,��
2017/09/21,23:20,0.952,1.511,0.981,1.811,1.238,0.515,0.945,0.868,���k��,3.5,��
2017/09/21,23:30,0.951,1.511,0.982,1.810,1.236,0.515,0.945,0.869,��,2.6,��
2017/09/21,23:40,0.952,1.511,0.982,1.805,1.235,0.517,0.945,0.868,���k��,3.4,��
2017/09/21,23:50,0.952,1.511,0.984,1.806,1.234,0.517,0.945,0.869,��,3.3,��
